�N����,����,�~����,�C��,���x,�C��,����,���ϕ���,�ő�u�ԕ���,�ő厞����,���˗�,�I�_���x,�n�����x,�ő啗���N��,DTYPE
"18/05/23","00:10",0.0,18.2,67.8,1008.1,8.7,0.5,1.2,352.7,0.00,12.2,19.1,"00:07:36",1
"18/05/23","00:20",0.0,18.2,68.1,1008.1,4.2,0.6,1.9,68.0,0.00,12.3,19.1,"00:16:56",1
"18/05/23","00:30",0.0,18.3,67.7,1008.1,27.7,0.7,2.1,318.3,0.00,12.3,18.9,"00:23:28",1
"18/05/23","00:40",0.0,18.2,67.7,1008.1,353.3,0.6,1.3,321.2,0.00,12.2,18.8,"00:31:04",1
"18/05/23","00:50",0.0,18.1,68.0,1007.6,334.6,0.8,2.0,337.9,0.00,12.1,18.7,"00:42:08",1
"18/05/23","01:00",0.0,18.1,68.0,1007.8,344.1,0.6,1.4,36.9,0.00,12.1,18.9,"00:59:28",1
"18/05/23","01:10",0.0,18.0,68.0,1007.4,328.9,0.6,1.4,327.1,0.00,12.1,18.7,"01:03:52",1
"18/05/23","01:20",0.0,18.0,68.4,1007.4,21.8,0.3,1.0,356.8,0.00,12.1,18.8,"01:10:24",1
"18/05/23","01:30",0.0,18.1,69.0,1007.1,356.7,0.3,1.0,17.7,0.00,12.4,18.8,"01:22:48",1
"18/05/23","01:40",0.0,18.1,69.4,1007.1,351.2,0.3,1.0,324.9,0.00,12.5,18.7,"01:31:52",1
"18/05/23","01:50",0.0,18.0,69.9,1007.1,63.6,0.3,1.6,60.6,0.00,12.5,18.6,"01:42:56",1
"18/05/23","02:00",0.0,18.1,70.1,1007.1,33.1,0.5,1.0,69.5,0.00,12.6,18.7,"01:51:20",1
"18/05/23","02:10",0.0,18.1,69.9,1006.9,55.0,0.5,1.4,107.4,0.00,12.6,18.5,"02:07:28",1
"18/05/23","02:20",0.0,17.9,70.6,1006.7,120.5,0.3,1.7,82.4,0.00,12.5,18.5,"02:10:56",1
"18/05/23","02:30",0.0,18.0,71.0,1006.9,75.4,0.5,1.3,40.4,0.00,12.7,18.6,"02:24:32",1
"18/05/23","02:40",0.0,18.1,70.6,1006.4,68.8,0.3,1.1,12.3,0.00,12.7,18.6,"02:34:32",1
"18/05/23","02:50",0.0,18.1,70.7,1006.0,95.7,0.6,1.9,120.8,0.00,12.7,18.6,"02:46:24",1
"18/05/23","03:00",0.0,18.1,70.8,1005.7,48.2,0.5,1.3,102.5,0.00,12.8,18.6,"02:50:48",1
"18/05/23","03:10",0.0,18.2,70.6,1005.7,17.2,0.5,2.6,345.9,0.00,12.8,18.6,"03:06:24",1
"18/05/23","03:20",0.0,18.1,71.6,1005.7,75.5,0.3,1.1,65.3,0.00,12.9,18.6,"03:17:20",1
"18/05/23","03:30",0.0,18.1,71.5,1005.2,57.0,0.3,1.2,132.5,0.00,12.9,18.5,"03:29:28",1
"18/05/23","03:40",0.0,18.1,71.8,1005.5,64.3,0.5,2.0,113.1,0.00,13.0,18.5,"03:36:00",1
"18/05/23","03:50",0.0,18.3,71.3,1005.2,100.4,0.6,2.4,96.1,0.00,13.1,18.5,"03:43:36",1
"18/05/23","04:00",0.0,18.1,71.5,1005.7,310.6,0.3,1.2,55.0,0.00,12.9,18.3,"03:59:28",1
"18/05/23","04:10",0.0,18.1,71.1,1005.2,14.3,0.3,1.4,7.8,0.00,12.8,18.5,"04:02:48",1
"18/05/23","04:20",0.0,18.2,72.0,1005.2,97.7,0.5,2.0,125.5,0.00,13.1,18.4,"04:18:08",1
"18/05/23","04:30",0.0,18.3,71.2,1005.7,77.0,0.3,0.9,114.2,0.00,13.0,18.3,"04:20:48",1
"18/05/23","04:40",0.0,18.3,70.9,1005.5,43.8,0.3,1.0,33.3,0.00,13.0,18.2,"04:35:44",1
"18/05/23","04:50",0.0,18.4,71.2,1005.2,25.4,0.6,1.2,6.2,0.00,13.1,18.3,"04:44:16",1
"18/05/23","05:00",0.0,18.4,70.9,1005.5,319.1,0.6,1.4,336.8,0.00,13.1,18.4,"04:51:04",1
"18/05/23","05:10",0.0,18.4,71.8,1005.5,95.2,0.6,1.4,44.5,0.00,13.3,18.5,"05:01:04",1
"18/05/23","05:20",0.0,18.6,72.1,1005.2,75.6,0.5,1.6,111.0,0.00,13.5,18.4,"05:17:52",1
"18/05/23","05:30",0.0,18.8,71.8,1005.2,92.1,0.8,1.9,26.8,0.00,13.6,18.3,"05:26:32",1
"18/05/23","05:40",0.0,18.9,71.5,1004.8,94.9,0.7,2.1,68.0,0.00,13.7,18.4,"05:31:20",1
"18/05/23","05:50",0.0,18.8,72.2,1004.8,114.7,0.8,2.5,104.6,0.00,13.7,18.4,"05:44:00",1
"18/05/23","06:00",0.0,18.9,72.7,1005.2,122.4,1.1,2.8,130.4,0.00,13.9,18.3,"05:53:52",1
"18/05/23","06:10",0.0,18.9,72.9,1005.0,109.7,0.6,1.6,124.6,0.00,14.0,18.3,"06:00:56",1
"18/05/23","06:20",0.0,18.9,73.3,1005.0,112.3,0.6,1.4,107.7,0.00,14.1,18.5,"06:18:24",1
"18/05/23","06:30",0.0,19.0,73.9,1005.0,130.5,0.7,2.2,159.5,0.00,14.3,18.4,"06:28:24",1
"18/05/23","06:40",0.0,19.1,73.6,1005.0,69.6,0.8,2.0,115.5,0.00,14.3,18.2,"06:32:48",1
"18/05/23","06:50",0.0,19.2,73.6,1005.0,108.9,1.0,1.9,141.4,0.01,14.4,18.5,"06:43:36",1
"18/05/23","07:00",0.0,19.4,74.0,1004.8,82.0,0.7,1.8,110.8,0.02,14.7,18.3,"06:55:04",1
"18/05/23","07:10",0.0,19.2,75.4,1004.5,94.6,1.0,2.7,133.5,0.01,14.8,18.6,"07:05:28",1
"18/05/23","07:20",0.0,19.0,77.0,1004.5,98.6,0.8,2.8,119.9,0.01,14.9,18.3,"07:16:24",1
"18/05/23","07:30",0.0,19.0,78.0,1004.8,96.2,1.1,2.9,75.0,0.01,15.1,18.4,"07:25:44",1
"18/05/23","07:40",0.0,19.0,79.0,1005.0,36.2,0.6,1.8,113.6,0.01,15.3,18.3,"07:35:28",1
"18/05/23","07:50",0.0,19.1,78.9,1004.8,61.8,1.0,2.0,51.1,0.03,15.4,18.3,"07:45:20",1
"18/05/23","08:00",0.0,19.2,78.5,1004.3,46.1,0.7,2.2,76.1,0.02,15.4,18.6,"07:59:52",1
"18/05/23","08:10",0.0,19.1,78.6,1004.5,86.8,0.8,2.9,40.3,0.04,15.3,18.6,"08:01:28",1
"18/05/23","08:20",0.0,19.1,79.3,1004.8,77.5,1.1,2.7,84.9,0.03,15.5,18.5,"08:18:40",1
"18/05/23","08:30",0.0,19.1,80.0,1004.3,91.0,1.0,1.9,94.5,0.04,15.6,18.7,"08:27:36",1
"18/05/23","08:40",0.2,18.9,80.9,1004.5,89.1,1.1,3.2,122.0,0.05,15.6,18.6,"08:35:36",1
"18/05/23","08:50",0.0,19.0,82.9,1004.3,86.7,0.8,2.6,112.9,0.08,16.1,18.7,"08:45:20",1
"18/05/23","09:00",0.2,19.0,84.1,1004.3,91.0,0.7,2.6,87.3,0.07,16.3,18.7,"08:53:28",1
"18/05/23","09:10",0.0,19.3,85.2,1004.1,99.9,0.7,2.0,117.3,0.09,16.8,18.7,"09:01:44",1
"18/05/23","09:20",0.0,19.2,85.3,1004.1,70.7,0.7,2.1,113.4,0.08,16.7,18.7,"09:11:20",1
"18/05/23","09:30",0.0,18.9,85.8,1003.8,56.6,0.6,1.7,107.2,0.06,16.5,18.6,"09:25:36",1
"18/05/23","09:40",0.2,18.8,86.3,1004.3,9.0,0.5,1.4,19.3,0.06,16.5,18.9,"09:31:12",1
"18/05/23","09:50",0.2,18.7,86.7,1004.3,59.9,0.8,1.8,58.3,0.08,16.5,19.0,"09:43:36",1
"18/05/23","10:00",0.2,19.3,86.4,1004.1,60.1,0.6,1.7,109.1,0.09,17.0,18.7,"09:52:08",1
"18/05/23","10:10",0.2,18.7,88.6,1003.8,46.1,0.6,1.6,59.4,0.10,16.8,19.0,"10:05:04",1
"18/05/23","10:20",0.2,18.8,90.0,1004.3,104.6,0.7,2.1,92.2,0.10,17.2,18.9,"10:10:32",1
"18/05/23","10:30",0.0,18.6,89.3,1003.8,120.9,1.3,2.8,142.5,0.10,16.8,19.0,"10:21:12",1
"18/05/23","10:40",0.2,18.9,89.9,1004.1,81.9,0.7,2.2,106.8,0.11,17.2,19.1,"10:33:28",1
"18/05/23","10:50",0.0,18.9,88.8,1003.8,57.4,0.6,1.6,203.9,0.08,17.1,19.1,"10:47:44",1
"18/05/23","11:00",0.0,19.0,89.2,1004.1,102.1,1.0,2.9,129.5,0.12,17.2,19.2,"10:54:16",1
"18/05/23","11:10",0.4,18.8,88.4,1004.1,126.3,0.7,2.0,85.6,0.09,16.9,19.1,"11:05:20",1
"18/05/23","11:20",0.2,18.8,89.1,1004.1,126.4,1.1,2.2,136.9,0.09,17.0,19.2,"11:10:56",1
"18/05/23","11:30",0.4,18.6,89.8,1003.8,116.6,1.1,2.7,108.0,0.12,16.9,19.2,"11:27:12",1
"18/05/23","11:40",0.2,18.9,90.7,1003.6,122.8,0.8,2.1,110.0,0.12,17.4,19.3,"11:33:28",1
"18/05/23","11:50",0.2,18.9,90.6,1003.4,74.9,0.5,1.9,113.4,0.17,17.4,19.4,"11:49:44",1
"18/05/23","12:00",0.2,18.8,91.7,1003.4,86.5,0.7,1.7,22.6,0.16,17.5,19.5,"11:56:08",1
"18/05/23","12:10",0.0,19.1,91.2,1003.1,87.2,0.8,2.2,67.2,0.16,17.7,19.4,"12:08:08",1
"18/05/23","12:20",0.2,19.1,90.8,1002.6,85.4,1.2,2.8,92.4,0.20,17.6,19.6,"12:14:16",1
"18/05/23","12:30",0.0,19.3,90.2,1002.4,102.4,1.1,2.7,33.0,0.18,17.7,19.5,"12:25:04",1
"18/05/23","12:40",0.0,19.3,89.3,1002.6,122.3,1.2,3.1,85.2,0.19,17.5,19.7,"12:32:48",1
"18/05/23","12:50",0.0,19.3,89.6,1001.9,105.8,1.1,3.1,97.9,0.18,17.6,19.7,"12:40:48",1
"18/05/23","13:00",0.0,19.4,88.3,1001.9,98.8,1.1,3.1,99.3,0.20,17.5,19.7,"12:52:08",1
"18/05/23","13:10",0.0,19.3,87.5,1001.5,114.0,0.8,1.9,82.9,0.10,17.2,19.8,"13:00:40",1
"18/05/23","13:20",0.0,19.3,87.1,1001.5,74.9,0.8,2.0,132.2,0.08,17.1,19.8,"13:11:04",1
"18/05/23","13:30",0.0,19.5,87.5,1001.2,82.4,0.8,1.9,97.5,0.09,17.4,19.9,"13:26:16",1
"18/05/23","13:40",0.0,19.5,87.6,1001.2,56.5,0.7,1.8,106.4,0.12,17.4,20.0,"13:33:36",1
"18/05/23","13:50",0.0,19.8,87.8,1001.2,53.2,1.0,2.1,121.0,0.13,17.8,19.9,"13:40:40",1
"18/05/23","14:00",0.0,19.9,86.0,1000.8,80.7,0.8,1.8,123.4,0.09,17.5,19.8,"13:57:36",1
"18/05/23","14:10",0.0,19.9,85.9,1000.3,87.8,1.0,2.2,84.3,0.11,17.5,20.0,"14:06:48",1
"18/05/23","14:20",0.0,20.1,85.6,1000.5,45.8,0.8,2.5,349.9,0.10,17.7,20.0,"14:13:28",1
"18/05/23","14:30",0.0,20.2,85.2,1000.5,101.1,1.1,2.7,140.0,0.09,17.7,20.0,"14:20:08",1
"18/05/23","14:40",0.2,20.2,85.3,1000.3,88.3,0.8,3.1,101.3,0.09,17.7,20.0,"14:30:16",1
"18/05/23","14:50",0.0,19.9,86.2,1000.0,106.2,1.1,2.7,73.4,0.07,17.6,19.9,"14:46:00",1
"18/05/23","15:00",0.0,19.7,86.1,999.8,122.9,1.0,2.1,141.3,0.05,17.4,20.0,"14:56:00",1
"18/05/23","15:10",0.0,19.7,86.1,1000.0,106.1,1.2,3.2,118.9,0.03,17.4,19.9,"15:06:40",1
"18/05/23","15:20",0.0,19.9,86.3,1000.0,119.6,1.1,2.7,67.2,0.07,17.6,19.9,"15:10:40",1
"18/05/23","15:30",0.0,19.9,85.5,1000.0,108.0,1.2,3.9,100.9,0.07,17.4,19.9,"15:22:40",1
"18/05/23","15:40",0.0,19.9,85.8,1000.0,96.0,1.0,3.1,111.8,0.04,17.5,19.9,"15:38:48",1
"18/05/23","15:50",0.0,19.8,85.9,1000.0,124.7,1.0,2.1,96.9,0.04,17.4,19.8,"15:43:52",1
"18/05/23","16:00",0.2,19.8,86.1,999.8,131.0,1.2,3.1,114.8,0.06,17.4,19.9,"15:50:40",1
"18/05/23","16:10",0.0,19.8,86.1,999.8,134.8,0.8,3.1,131.8,0.07,17.4,20.0,"16:00:02",1
"18/05/23","16:20",0.2,19.8,86.6,999.6,113.5,0.8,1.9,119.3,0.04,17.5,19.7,"16:19:44",1
"18/05/23","16:30",0.2,19.8,87.1,999.6,13.1,0.6,1.6,333.4,0.03,17.6,19.9,"16:21:12",1
"18/05/23","16:40",0.2,19.5,88.0,999.8,28.2,0.6,1.3,0.1,0.02,17.5,19.9,"16:35:52",1
"18/05/23","16:50",0.2,19.3,88.6,999.8,51.4,0.6,1.2,63.5,0.01,17.4,19.9,"16:43:04",1
"18/05/23","17:00",0.2,19.2,89.3,999.3,26.5,0.6,1.6,31.5,0.01,17.4,19.9,"16:50:02",1
"18/05/23","17:10",0.2,19.1,90.3,999.3,33.5,0.6,1.8,343.7,0.02,17.5,19.9,"17:03:28",1
"18/05/23","17:20",0.0,18.9,90.1,999.3,5.8,0.6,1.4,335.9,0.02,17.3,19.6,"17:18:56",1
"18/05/23","17:30",0.2,18.8,90.7,999.6,328.3,0.6,1.8,355.6,0.00,17.3,19.8,"17:25:04",1
"18/05/23","17:40",0.2,18.8,90.8,999.8,312.4,0.8,1.7,325.9,0.00,17.3,19.7,"17:36:08",1
"18/05/23","17:50",0.4,18.7,91.4,999.3,318.1,0.7,1.6,303.6,0.01,17.3,19.9,"17:45:52",1
"18/05/23","18:00",0.4,18.6,91.8,999.3,334.6,0.7,1.7,333.5,0.01,17.3,19.6,"17:51:52",1
"18/05/23","18:10",0.2,18.4,91.8,999.3,310.4,0.8,1.7,309.1,0.00,17.1,19.6,"18:02:08",1
"18/05/23","18:20",0.2,18.3,92.7,999.3,254.6,0.6,1.0,241.6,0.00,17.1,19.6,"18:12:32",1
"18/05/23","18:30",0.0,18.3,93.1,999.6,278.9,0.6,1.7,239.4,0.00,17.2,19.5,"18:22:32",1
"18/05/23","18:40",0.2,18.3,93.4,999.8,305.2,0.5,1.1,332.0,0.00,17.3,19.4,"18:36:48",1
"18/05/23","18:50",0.2,18.1,93.5,999.3,304.8,0.3,0.9,328.0,0.00,17.1,19.4,"18:40:56",1
"18/05/23","19:00",0.0,18.1,94.1,1000.0,321.7,0.7,1.2,345.1,0.00,17.2,19.6,"18:55:54",1
"18/05/23","19:10",0.2,18.0,94.2,999.8,294.9,0.3,0.9,309.5,0.00,17.1,19.5,"19:06:54",1
"18/05/23","19:20",0.0,18.0,94.4,999.8,272.6,0.6,1.2,239.0,0.00,17.1,19.4,"19:19:56",1
"18/05/23","19:30",0.2,17.9,94.7,999.8,282.2,0.6,1.1,273.5,0.00,17.1,19.3,"19:23:12",1
"18/05/23","19:40",0.0,17.8,94.8,999.8,268.5,0.6,0.9,253.9,0.00,17.0,19.4,"19:34:38",1
"18/05/23","19:50",0.0,17.8,95.1,1000.0,278.5,0.7,1.0,254.7,0.00,17.0,19.2,"19:40:30",1
"18/05/23","20:00",0.0,17.8,95.1,1000.0,281.7,0.6,0.8,299.2,0.00,17.0,19.4,"19:50:32",1
"18/05/23","20:10",0.0,17.8,95.3,1000.3,291.5,0.7,0.8,276.0,0.00,17.1,19.4,"20:02:26",1
"18/05/23","20:20",0.0,17.8,95.4,1000.3,301.0,0.8,1.0,332.7,0.00,17.1,19.4,"20:15:56",1
"18/05/23","20:30",0.0,17.8,95.5,1000.3,286.6,0.7,0.9,303.3,0.00,17.1,19.1,"20:20:58",1
"18/05/23","20:40",0.2,17.8,95.5,1000.5,306.4,0.8,1.7,321.1,0.00,17.1,19.2,"20:34:40",1
"18/05/23","20:50",0.0,17.7,95.7,1000.3,270.6,0.6,1.1,256.3,0.00,17.0,19.1,"20:45:16",1
"18/05/23","21:00",0.2,17.7,95.9,1000.5,276.4,0.6,0.9,309.7,0.00,17.1,19.2,"20:58:32",1
"18/05/23","21:10",0.0,17.8,95.9,1000.3,312.0,0.7,1.0,316.4,0.00,17.2,19.1,"21:01:16",1
"18/05/23","21:20",0.0,17.8,96.0,1000.5,281.9,0.5,1.1,318.5,0.00,17.2,19.0,"21:10:08",1
"18/05/23","21:30",0.0,17.8,96.1,1000.5,297.9,0.7,0.9,304.3,0.00,17.2,19.1,"21:22:32",1
"18/05/23","21:40",0.2,17.8,96.1,1000.8,292.2,0.7,1.1,314.6,0.00,17.2,19.1,"21:33:02",1
"18/05/23","21:50",0.2,17.7,96.1,1000.5,289.7,0.5,0.9,314.2,0.00,17.1,19.0,"21:44:16",1
"18/05/23","22:00",0.2,17.7,96.3,1000.3,297.0,0.6,0.9,262.6,0.00,17.1,19.3,"21:53:06",1
"18/05/23","22:10",0.2,17.7,96.3,1000.5,298.3,0.7,1.0,327.8,0.00,17.1,19.1,"22:00:24",1
"18/05/23","22:20",0.2,17.7,96.4,1000.8,298.5,0.7,0.9,305.6,0.00,17.2,19.0,"22:19:02",1
"18/05/23","22:30",1.8,17.7,96.4,1000.8,310.9,0.8,1.3,328.9,0.00,17.2,18.9,"22:26:06",1
"18/05/23","22:40",1.8,17.7,96.5,1000.5,314.0,0.7,1.8,312.7,0.00,17.2,19.0,"22:31:44",1
"18/05/23","22:50",1.0,17.6,96.6,1000.8,240.0,0.1,0.5,245.7,0.00,17.1,18.8,"22:48:24",1
"18/05/23","23:00",0.0,17.6,96.7,1000.5,321.9,0.2,0.6,320.2,0.00,17.1,18.9,"22:54:10",1
"18/05/23","23:10",0.2,17.6,96.7,1000.3,293.5,0.6,1.0,341.2,0.00,17.1,18.9,"23:01:00",1
"18/05/23","23:20",0.0,17.6,96.8,1000.3,314.5,0.7,1.0,326.7,0.00,17.1,18.8,"23:16:38",1
"18/05/23","23:30",0.0,17.6,96.9,1000.0,307.8,0.7,1.0,326.3,0.00,17.1,18.9,"23:22:28",1
"18/05/23","23:40",0.0,17.6,96.9,1000.3,266.8,0.1,0.4,277.4,0.00,17.1,18.9,"23:31:04",1
"18/05/23","23:50",0.0,17.6,97.0,1000.3,274.4,0.3,0.8,322.8,0.00,17.2,18.8,"23:45:28",1
"18/05/23","24:00",0.0,17.6,97.0,1000.0,289.6,0.3,0.6,327.4,0.00,17.2,18.7,"23:57:12",1
